Weather History for Page, AZ

Change the Weather History Date:

Thursday, May 16, 2013

  Actual Average Record
Temperature  
Mean Temperature 76 °F -  
Max Temperature 90 °F 78 °F 91 °F (1997)
Min Temperature 62 °F 54 °F 35 °F (1962)
Cooling Degree Days 11    
Growing Degree Days 26 (Base 50)    
Moisture  
Dew Point 21 °F    
Average Humidity 12    
Maximum Humidity 25    
Minimum Humidity 4    
Precipitation  
Precipitation 0.00 in - - ()
Sea Level Pressure  
Sea Level Pressure 29.70 in    
Wind  
Wind Speed 5 mph (SW)    
Max Wind Speed 10 mph    
Max Gust Speed 22 mph    
Visibility 10 miles    
Events      
Averages and records for this station are not official NWS values.
T = Trace of Precipitation, MM = Missing Value Source: NWS Daily Summary

Daily Weather History Graph

Daily Weather History Graph

Search for Another Location

Airport:

Trip Planner

Search our weather history database for the weather conditions in past years. The results will help you decide how hot, cold, wet, or windy it might be!

Date:

Astronomy

May. 16, 2013 Rise Set
Actual Time 5:16 AM MST 7:27 PM MST
Civil Twilight 4:47 AM MST 7:57 PM MST
Nautical Twilight 4:12 AM MST 8:32 PM MST
Astronomical Twilight 3:33 AM MST 9:11 PM MST
Moon 10:50 AM MST (5/16) No Moon Set
Length of Visible Light 15h 09m
Length of Day
14h 11m
Waxing Crescent, 36% of the Moon is Illuminated
May 16
Waxing Crescent
May 17
First Quarter
May 24
Full
May 31
Last Quarter
Jun 8
New

Hourly Weather History & Observations

Time (MST) Temp. Dew Point Humidity Pressure Visibility Wind Dir Wind Speed Gust Speed Precip Events Conditions
12:53 AM 69.1 °F 24.1 °F 18% 29.72 in 10.0 mi SSW 5.8 mph - N/A   Clear
1:53 AM 69.1 °F 24.1 °F 18% 29.71 in 10.0 mi South 3.5 mph - N/A   Clear
2:53 AM 68.0 °F 21.9 °F 17% 29.72 in 10.0 mi SSW 4.6 mph - N/A   Clear
3:53 AM 66.0 °F 21.9 °F 19% 29.73 in 10.0 mi Calm Calm - N/A   Clear
4:53 AM 64.0 °F 21.9 °F 20% 29.74 in 10.0 mi Calm Calm - N/A   Clear
5:53 AM 63.0 °F 26.1 °F 25% 29.76 in 10.0 mi Calm Calm - N/A   Clear
6:53 AM 68.0 °F 27.0 °F 21% 29.77 in 10.0 mi Calm Calm - N/A   Clear
7:53 AM 73.0 °F 25.0 °F 17% 29.77 in 10.0 mi Calm Calm - N/A   Clear
8:53 AM 73.9 °F 28.0 °F 18% 29.77 in 10.0 mi NNW 4.6 mph - N/A   Clear
9:53 AM 77.0 °F 24.1 °F 14% 29.75 in 10.0 mi Variable 4.6 mph - N/A   Clear
10:53 AM 82.0 °F 25.0 °F 12% 29.73 in 10.0 mi NE 5.8 mph - N/A   Clear
11:53 AM 84.2 °F 23.0 °F 11% 29.90 in 10.0 mi North 4.6 mph - N/A   Clear
12:53 PM 84.9 °F 23.0 °F 10% 29.68 in 10.0 mi South 3.5 mph - N/A   Clear
1:53 PM 87.1 °F 19.9 °F 8% 29.65 in 10.0 mi WSW 9.2 mph - N/A   Clear
2:53 PM 87.8 °F 19.4 °F 8% 29.82 in 10.0 mi SW 6.9 mph 19.6 mph N/A   Clear
3:53 PM 87.1 °F 21.0 °F 9% 29.60 in 10.0 mi SW 8.1 mph 16.1 mph N/A   Clear
4:53 PM 88.0 °F 19.0 °F 8% 29.58 in 10.0 mi SW 10.4 mph 19.6 mph N/A   Clear
5:53 PM 86.0 °F 15.1 °F 7% 29.57 in 10.0 mi SW 9.2 mph - N/A   Clear
6:53 PM 84.9 °F 15.1 °F 7% 29.58 in 10.0 mi Variable 6.9 mph 17.3 mph N/A   Clear
7:53 PM 82.9 °F 15.1 °F 8% 29.59 in 10.0 mi WSW 8.1 mph 21.9 mph N/A   Clear
8:53 PM 81.0 °F 15.1 °F 8% 29.61 in 10.0 mi SW 9.2 mph 21.9 mph N/A   Clear
9:53 PM 79.0 °F 16.0 °F 9% 29.63 in 10.0 mi SW 8.1 mph - N/A   Clear
10:53 PM 78.8 °F 19.4 °F 11% 29.84 in 10.0 mi SSW 8.1 mph 20.7 mph N/A   Clear
11:53 PM 75.9 °F 21.0 °F 13% 29.64 in 10.0 mi SSW 8.1 mph - N/A   Clear